Ellensburg, WA
on Sunday, November 4, 2012

Sunday
Previous Day Next Day
Daily Summary
 ActualAverage (KYKM)Record (KYKM)
Temperature
Mean Temperature °F 42°F  
Max Temperature 64°F 54°F 69°F (2007)
Min Temperature 48°F 29°F 10°F (2002)
Degree Days
Heating Degree Days 9 23  
Month to date heating degree days 91  
Since 1 July heating degree days 795  
Cooling Degree Days 0 0  
Month to date cooling degree days 0  
Year to date cooling degree days 472  
Growing Degree Days6 (Base °F )  
Moisture
Dew Point 45°F   
Average Humidity 75    
Maximum Humidity 87    
Minimum Humidity 52    
Precipitation
Precipitation 0.00 in 0.03 in 0.41 in (2008)
Month to date precipitation 0.11  
Year to date precipitation 5.78  
Snow
Snow 0.00 in 0.00 in 1.80 in (1973)
Month to date snowfall 0.0  
Year to date snowfall 8.7  
Since 1 July snowfall 0.1  
Snow Depth in   
Wind
Wind Speed 4 mph   
Max Wind Speed 9 mph   
Max Gust Speed 78 mph   
Visibility 10 miles   
Events     

Key: T is trace of precipitation, MM is missing value
Source: NWS Daily Summary
Time(PST)TemperatureDew PointHumidity Pressure Visibility Wind DirectionWind SpeedGust SpeedPrecipitationEvents Conditions
12:53 AM 55.0°F 46.0°F 72% 30.18 in 10.0 miles NW 9.2 mph - N/A   Overcast
1:53 AM 54.0°F 46.0°F 75% 30.19 in 10.0 miles NW 8.1 mph - N/A   Overcast
1:50 AM 48.2°F 44.6°F 87% 30.19 in 10.0 miles WSW 5.8 mph 78.3 mph N/A   Squalls
1:53 AM 48.9°F 44.1°F 83% 30.20 in 10.0 miles WSW 5.8 mph 78.3 mph N/A   Squalls
2:53 AM 51.1°F 45.0°F 80% 30.21 in 10.0 miles WNW 6.9 mph - N/A   Mostly Cloudy
3:53 AM 48.0°F 43.0°F 83% 30.22 in 10.0 miles ESE 4.6 mph - N/A   Mostly Cloudy
4:53 AM 48.9°F 44.1°F 83% 30.22 in 10.0 miles ENE 3.5 mph - N/A   Mostly Cloudy
5:53 AM 50.0°F 45.0°F 83% 30.24 in 10.0 miles ENE 3.5 mph - N/A   Overcast
6:53 AM 50.0°F 44.1°F 80% 30.26 in 10.0 miles Calm Calm - N/A   Overcast
7:53 AM 51.1°F 45.0°F 80% 30.28 in 10.0 miles Calm Calm - N/A   Overcast
8:53 AM 53.1°F 46.0°F 77% 30.27 in 10.0 miles Calm Calm - N/A   Mostly Cloudy
9:53 AM 54.0°F 46.9°F 77% 30.27 in 10.0 miles SE 4.6 mph - N/A   Partly Cloudy
10:53 AM 55.0°F 46.9°F 74% 30.27 in 10.0 miles Calm Calm - N/A   Clear
11:53 AM 61.0°F 48.0°F 62% 30.27 in 10.0 miles Calm Calm - N/A   Clear
12:53 PM 63.0°F 46.9°F 56% 30.25 in 10.0 miles Calm Calm - N/A   Clear
1:53 PM 63.0°F 46.9°F 56% 30.27 in 10.0 miles Calm Calm - N/A   Clear
2:53 PM 64.0°F 46.0°F 52% 30.26 in 10.0 miles Calm Calm - N/A   Clear
3:53 PM 63.0°F 46.9°F 56% 30.26 in 10.0 miles SSE 3.5 mph - N/A   Clear
4:53 PM 57.0°F 46.9°F 69% 30.27 in 10.0 miles Calm Calm - N/A   Clear
5:53 PM 52.0°F 45.0°F 77% 30.27 in 10.0 miles Calm Calm - N/A   Clear
6:53 PM 51.1°F 45.0°F 80% 30.26 in 10.0 miles Calm Calm - N/A   Clear
7:53 PM 51.1°F 45.0°F 80% 30.27 in 10.0 miles Calm Calm - N/A   Clear
8:53 PM 48.0°F 43.0°F 83% 30.27 in 10.0 miles Calm Calm - N/A   Clear
9:53 PM 48.0°F 43.0°F 83% 30.27 in 10.0 miles Calm Calm - N/A   Clear
10:53 PM 48.9°F 45.0°F 86% 30.27 in 10.0 miles ENE 6.9 mph - N/A   Overcast
Moon Phase
Nov. 04 Nov. 06 Nov. 13 Nov. 20 Nov. 28
Sunrise:06:50 AM (PST) Moon Rise:09:20 PM (PST)11/4
Sunset:04:40 PM (PST) Moon Set:11:41 AM (PST)11/4

Copyright © 2014 The Weather Underground, Inc.